Flag for Bahrain Weather past 2 weeks in Riffa, Bahrain

Now
75 °F

Sunny.


Feels Like: 77 °F
Forecast: 74 / 84 °F
Wind: 17 mph from Northwest

Location: Bahrain International Airport

Current Time: Apr 18, 2015 at 6:32:44 AM

Latest Report: Apr 18, 2015 at 6:00 AM


Visibility: 10 mi

Pressure: 29.86 "Hg

Humidity: 65%

Dew point: 63 °F

Location of RiffaLocation

Historic Weather in Riffa — Graph

°F

Riffa temperature yesterday

Maximum temperature yesterday: 90 °F (at 3:00 PM)
Minimum temperature yesterday: 77 °F (at 5:00 AM)
Average temperature yesterday: 81 °F

Past Weeks' High & Low Weather Summary

 TemperatureHumidityPressure
High106 °F (Apr 12, 3:00 PM)83% (Apr 16, 5:00 AM)30.04 "Hg (Apr 16, 5:00 AM)
Low70 °F (Apr 16, 3:00 AM)10% (Apr 12, 3:00 PM)29.68 "Hg (Apr 4, 6:00 PM)
Average80 °F49%29.85 "Hg
* Reported Apr 3 5:00 AM — Apr 18 5:00 AM, Riffa, Weather by CustomWeather, © 2015

Note: Actual official high and low records may vary slightly from our data, if they occured in-between our weather recording intervals... More about our weather records

Advertising

Riffa weather history for previous 24 hours

 ConditionsComfort  
Time TempWeatherWind HumidityBarometerVisibility
5:00 AM
Sat, Apr 18
75 °FClear.17 mph65%29.86 "Hg10 mi
4:00 AM75 °FClear.13 mph69%29.86 "Hg10 mi
3:00 AM75 °FClear.13 mph74%29.86 "Hg10 mi
2:00 AM77 °FClear.10 mph65%29.86 "Hg5 mi
1:00 AM77 °FClear.9 mph61%29.89 "Hg5 mi
12:00 AM77 °FClear.13 mph61%29.89 "Hg4 mi
11:00 PM
Fri, Apr 17
77 °FDuststorm.14 mph61%29.92 "Hg3 mi
10:00 PM77 °FClear.15 mph61%29.92 "Hg3 mi
9:00 PM77 °FClear.13 mph69%29.95 "Hg3 mi
8:00 PM77 °FClear.14 mph74%29.92 "Hg3 mi
7:00 PM77 °FClear.13 mph79%29.92 "Hg4 mi
6:00 PM79 °FSunny.10 mph74%29.89 "Hg10 mi
5:00 PM81 °FSunny.10 mph62%29.89 "Hg10 mi
4:00 PM84 °FSunny.9 mph45%29.89 "Hg10 mi
3:00 PM90 °FSunny.8 mph24%29.92 "Hg10 mi
2:00 PM88 °FPassing clouds.7 mph29%29.92 "HgN/A
1:00 PM86 °FSunny.10 mph31%29.95 "Hg10 mi
12:00 PM86 °FPassing clouds.10 mph31%29.98 "HgN/A
11:00 AM86 °FSunny.13 mph33%30.01 "Hg10 mi
10:00 AM86 °FSunny.12 mph33%30.01 "Hg10 mi
9:00 AM82 °FSunny.13 mph48%30.01 "Hg10 mi
8:00 AM81 °FSunny.10 mph58%30.01 "Hg10 mi
7:00 AM81 °FSunny.7 mph51%29.98 "Hg10 mi
6:00 AM79 °FPassing clouds.8 mph51%29.98 "HgN/A
Weather by CustomWeather, © 2015

See weather overviewHow to use our weather pages